GW4332 Weather Reports


time (UTC)temp
C
wind
direction
speed
KPH
gust
KPH
rain 1hr
cm
rain 24hr
cm
rain mn
cm
humidity
%
barometer
mb
20260905072030 17 260 45.1 54.7 0.00 0.00 0.00 79 1016.5
20260905071030 17 257 46.7 57.9 0.00 0.00 0.00 80 1016.4
20260905070030 17 255 41.8 56.3 0.00 0.00 0.00 79 1016.4
20260905065030 17 244 35.4 48.3 0.00 0.00 0.00 81 1016.4
20260905064030 17 244 35.4 46.7 0.00 0.00 0.00 81 1016.4
20260905063029 17 257 35.4 46.7 0.00 0.00 0.00 81 1016.3
20260905062030 17 240 32.2 45.1 0.00 0.00 0.00 82 1016.3
20260905061030 17 221 30.6 38.6 0.00 0.00 0.00 82 1016.3
20260905060030 17 245 29.0 43.5 0.00 0.00 0.00 81 1016.2
20260905055030 17 238 33.8 41.8 0.00 0.00 0.00 81 1016.1
20260905054030 17 230 29.0 41.8 0.00 0.00 0.00 81 1016.1
20260905053030 17 229 30.6 40.2 0.00 0.00 0.00 80 1015.9
20260905052029 17 235 27.4 38.6 0.00 0.00 0.00 81 1015.8
20260905051030 17 239 30.6 43.5 0.00 0.00 0.00 80 1015.7
20260905050030 17 243 27.4 38.6 0.00 0.00 0.00 80 1015.7
20260905045030 17 227 30.6 43.5 0.00 0.00 0.00 81 1015.6
20260905044030 17 240 29.0 40.2 0.00 0.00 0.00 81 1015.6
20260905043030 17 219 30.6 45.1 0.00 0.00 0.00 80 1015.6
20260905042029 17 243 30.6 45.1 0.00 0.00 0.00 80 1015.6
20260905041030 17 242 27.4 43.5 0.00 0.00 0.00 80 1015.5
20260905040030 17 239 27.4 40.2 0.00 0.00 0.00 79 1015.4
20260905035030 17 234 32.2 45.1 0.00 0.00 0.00 78 1015.3
20260905034030 17 245 32.2 43.5 0.00 0.00 0.00 78 1015.3
20260905033030 17 251 27.4 46.7 0.00 0.00 0.00 77 1015.4
20260905032030 17 246 33.8 43.5 0.00 0.00 0.00 78 1015.3
20260905031030 17 257 35.4 43.5 0.00 0.00 0.00 78 1015.2
20260905030030 17 254 33.8 46.7 0.00 0.00 0.00 77 1015.1
20260905025029 17 241 25.7 41.8 0.00 0.00 0.00 77 1015.1
20260905024030 17 259 32.2 41.8 0.00 0.00 0.00 76 1015.0
20260905023030 17 246 33.8 45.1 0.00 0.00 0.00 77 1015.0
20260905022030 17 238 30.6 43.5 0.00 0.00 0.00 77 1014.9
20260905021030 17 245 35.4 48.3 0.00 0.00 0.00 76 1014.8
20260905020030 17 257 37.0 48.3 0.00 0.00 0.00 76 1014.8
20260905015030 17 255 35.4 46.7 0.00 0.00 0.00 77 1014.7
20260905014030 17 256 37.0 45.1 0.00 0.00 0.00 77 1014.6
20260905013029 17 253 37.0 48.3 0.00 0.00 0.00 76 1014.6
20260905012030 17 259 35.4 46.7 0.00 0.00 0.00 76 1014.5
20260905011030 17 252 38.6 48.3 0.00 0.00 0.00 75 1014.6
20260905010029 17 256 38.6 51.5 0.00 0.00 0.00 76 1014.5
20260905005030 17 244 32.2 43.5 0.00 0.00 0.00 77 1014.5
20260905004030 17 256 35.4 45.1 0.00 0.00 0.00 77 1014.4
20260905003030 17 242 37.0 49.9 0.00 0.00 0.00 76 1014.4
20260905002030 17 257 40.2 46.7 0.00 0.00 0.00 76 1014.5
20260905001030 17 255 38.6 53.1 0.00 0.00 0.00 75 1014.5
20260905000030 18 250 41.8 51.5 0.00 0.00 0.00 75 1014.4
20260904235030 18 253 43.5 53.1 0.00 0.00 0.00 75 1014.3
20260904234030 18 263 41.8 51.5 0.00 0.00 0.00 76 1014.2
20260904233030 18 267 41.8 53.1 0.00 0.00 0.00 75 1014.4
20260904232029 18 265 41.8 51.5 0.00 0.00 0.00 76 1014.3
20260904231030 18 267 40.2 46.7 0.00 0.00 0.00 77 1014.2
20260904230030 18 268 41.8 49.9 0.00 0.00 0.00 75 1014.1
20260904225030 18 275 41.8 53.1 0.00 0.00 0.00 75 1014.1
20260904224030 18 263 41.8 49.9 0.00 0.00 0.00 76 1014.2
20260904223030 18 252 43.5 53.1 0.00 0.00 0.00 75 1014.0
20260904222030 18 256 41.8 53.1 0.00 0.00 0.00 76 1013.9
20260904221030 18 259 46.7 56.3 0.00 0.00 0.00 75 1013.8
20260904220030 18 254 45.1 59.5 0.00 0.00 0.05 75 1013.8
20260904215030 18 257 45.1 56.3 0.00 0.00 0.05 76 1013.6
20260904214030 18 253 45.1 59.5 0.00 0.00 0.05 74 1013.5
20260904213030 18 253 46.7 57.9 0.00 0.00 0.05 75 1013.5
20260904212029 18 263 46.7 59.5 0.00 0.00 0.05 76 1013.3
20260904211030 18 258 43.5 57.9 0.00 0.00 0.05 74 1013.3
20260904210030 18 254 45.1 57.9 0.00 0.00 0.05 75 1013.3
20260904205030 18 259 43.5 56.3 0.00 0.00 0.05 74 1013.2
20260904204030 18 239 35.4 48.3 0.00 0.00 0.05 77 1013.4
20260904203030 18 254 38.6 54.7 0.00 0.00 0.05 75 1013.3
20260904202029 18 253 38.6 51.5 0.00 0.00 0.05 77 1013.3
20260904201029 18 241 38.6 48.3 0.00 0.00 0.05 76 1013.3
20260904200030 18 255 41.8 53.1 0.00 0.00 0.05 75 1013.2
20260904195030 18 249 40.2 53.1 0.00 0.00 0.05 76 1013.2
20260904194030 18 253 41.8 53.1 0.00 0.00 0.05 75 1013.0
20260904193030 18 237 41.8 56.3 0.00 0.00 0.05 77 1012.9
20260904192030 18 244 41.8 54.7 0.00 0.00 0.05 76 1012.9
20260904191030 18 241 38.6 54.7 0.00 0.00 0.05 76 1012.8
20260904190030 18 247 38.6 49.9 0.00 0.00 0.05 75 1012.7
20260904185030 18 265 37.0 54.7 0.00 0.00 0.05 74 1012.6
20260904184030 18 259 46.7 59.5 0.00 0.00 0.05 72 1012.4
20260904183030 18 262 45.1 59.5 0.00 0.00 0.05 75 1012.3
20260904182030 18 256 45.1 59.5 0.00 0.00 0.05 76 1012.2
20260904181030 18 262 46.7 57.9 0.00 0.00 0.05 77 1012.1
20260904180030 18 263 48.3 57.9 0.00 0.00 0.05 77 1011.9
20260904175030 18 270 46.7 57.9 0.00 0.00 0.05 77 1011.7
20260904174030 18 285 46.7 56.3 0.00 0.00 0.05 76 1011.5
20260904173030 18 284 49.9 61.2 0.00 0.00 0.05 74 1011.5
20260904172030 18 272 48.3 57.9 0.00 0.00 0.05 74 1011.3
20260904171030 18 274 53.1 66.0 0.00 0.00 0.05 78 1011.1
20260904170030 18 267 53.1 62.8 0.00 0.00 0.05 78 1011.1
20260904165030 18 268 48.3 66.0 0.00 0.00 0.05 79 1011.1
20260904164030 18 268 51.5 61.2 0.00 0.00 0.05 79 1011.0
20260904163029 17 282 49.9 64.4 0.00 0.00 0.05 83 1010.9
20260904162030 18 255 43.5 57.9 0.00 0.00 0.05 82 1010.9
20260904161030 18 251 41.8 53.1 0.00 0.00 0.05 82 1010.8
20260904160029 18 249 45.1 57.9 0.00 0.00 0.05 82 1010.6
20260904155030 18 256 45.1 57.9 0.00 0.00 0.05 82 1010.7
20260904154029 18 255 51.5 66.0 0.00 0.00 0.05 82 1010.3
20260904153029 18 253 54.7 67.6 0.00 0.00 0.05 81 1010.2
20260904152030 18 255 51.5 69.2 0.00 0.00 0.05 82 1010.3
20260904151030 18 263 48.3 64.4 0.00 0.00 0.05 83 1010.3
20260904150030 18 258 45.1 62.8 0.00 0.00 0.05 84 1010.2
20260904145030 18 251 53.1 69.2 0.00 0.00 0.05 84 1010.0
20260904144029 18 257 48.3 62.8 0.00 0.00 0.05 85 1009.9
20260904143029 18 264 49.9 62.8 0.00 0.00 0.05 85 1009.7
20260904142030 18 242 43.5 59.5 0.00 0.00 0.05 88 1009.8
20260904141030 18 241 35.4 48.3 0.00 0.00 0.05 91 1009.7
20260904140030 18 236 33.8 54.7 0.00 0.00 0.05 91 1009.5
20260904135030 18 236 41.8 51.5 0.00 0.00 0.05 92 1009.5
20260904134030 17 231 37.0 53.1 0.00 0.00 0.05 92 1009.2
20260904133030 17 237 41.8 53.1 0.00 0.00 0.05 92 1009.2
20260904132030 17 224 38.6 53.1 0.00 0.00 0.05 93 1009.2
20260904131030 17 234 38.6 51.5 0.00 0.00 0.05 92 1009.4
20260904130030 17 245 37.0 51.5 0.00 0.00 0.05 92 1009.1
20260904125030 17 237 41.8 54.7 0.00 0.00 0.05 93 1009.0
20260904124030 17 249 41.8 59.5 0.00 0.00 0.05 93 1008.8
20260904123030 17 243 38.6 57.9 0.00 0.00 0.05 93 1008.8
20260904122030 17 246 38.6 48.3 0.00 0.00 0.05 94 1008.9
20260904121030 17 251 45.1 61.2 0.00 0.00 0.05 93 1008.6
20260904120029 17 241 32.2 46.7 0.00 0.00 0.05 94 1008.8
20260904115030 17 251 33.8 51.5 0.00 0.00 0.03 94 1008.9
20260904114030 17 250 37.0 49.9 0.00 0.00 0.03 93 1008.5
20260904113030 17 233 33.8 46.7 0.00 0.00 0.00 93 1008.6
20260904112030 17 229 22.5 37.0 0.00 0.00 0.00 92 1008.6
20260904111030 17 219 20.9 30.6 0.00 0.00 0.00 92 1008.5
20260904110030 17 221 24.1 32.2 0.00 0.00 0.00 91 1008.6
20260904105030 17 230 27.4 38.6 0.00 0.00 0.00 90 1008.7
20260904104030 17 249 38.6 48.3 0.00 0.00 0.00 89 1008.8
20260904103029 18 260 49.9 61.2 0.00 0.00 0.00 86 1008.8
20260904102030 18 246 40.2 61.2 0.00 0.00 0.00 83 1008.6
20260904101030 19 239 35.4 48.3 0.00 0.00 0.00 84 1008.5
20260904100030 19 230 35.4 46.7 0.00 0.00 0.00 84 1008.4
20260904095030 19 247 37.0 51.5 0.00 0.00 0.00 84 1008.3
20260904094030 20 260 54.7 67.6 0.00 0.00 0.00 83 1007.8
20260904093031 20 251 51.5 67.6 0.00 0.00 0.00 85 1007.3
20260904092029 21 224 40.2 67.6 0.00 0.00 0.00 83 1007.5
20260904091030 21 229 40.2 62.8 0.00 0.00 0.00 82 1007.5
20260904090030 21 231 41.8 69.2 0.00 0.00 0.00 82 1007.5
20260904085030 21 216 38.6 59.5 0.00 0.00 0.00 82 1007.5
20260904084030 21 216 33.8 61.2 0.00 0.00 0.00 82 1007.6
20260904083030 21 224 35.4 56.3 0.00 0.00 0.00 83 1007.4
20260904082030 21 228 37.0 62.8 0.00 0.00 0.00 84 1007.6
20260904081030 21 219 35.4 61.2 0.00 0.00 0.00 84 1007.5
20260904080030 21 214 33.8 54.7 0.00 0.00 0.00 84 1007.6
20260904075029 21 211 35.4 61.2 0.00 0.00 0.00 84 1007.7
20260904074030 21 217 29.0 46.7 0.00 0.00 0.00 85 1007.9
20260904073030 20 225 35.4 57.9 0.00 0.00 0.00 85 1008.0